Location: Mahannah Oil Field
(37.4664°N, 96.6003°W)
Time: 23:14:52
(UTC+00:00)

deb Explorer IX - Pass Details

Date: 26 June 2021
Orbit: 544 x 1093 km, 38.8° (Epoch: 30 July)

Event Time Altitude Azimuth Distance (km) Brightness Sun altitude
Exits shadow 09:40:23 23° 222° (SW) 1,434 ? -14.4°
Maximum altitude 09:43:08 49° 158° (SSE) 827 ? -14.0°
Drops below altitude 10° 09:47:22 10° 83° (E) 1,916 ? -13.4°
Sets 09:49:35 0° 78° (ENE) 2,769 ? -13.1°
